パンスターズ彗星

C/2015 O1 ( PanSTARRS )

English version
Home page
Updated on December 1, 2023

---------------------------------------------------------------------

・ プロフィール

発見日 2015年7月19日
発見光度 19.6等
発見者 Pan-STARRS 1 telescope (Haleakala)

・ 写真集

・ 軌道要素

Epoch 2018 Feb. 11.0 TT = JDT 2458160.5
T 2018 Feb. 19.02459 TT                                 Rudenko
q   3.7297567            (2000.0)            P               Q
z  -0.0000472      Peri.   89.59284     -0.52093835     -0.50153087
                   Node   299.85563     -0.59864741     +0.79148201
e   1.0001759      Incl.  127.21086     +0.60847721     +0.34931793
From 3892 observations 2015 June 15-2020 Mar. 20, mean residual 1".0.
     Nongravitational parameters A1 = +7.99, A2 = -2.0505.

・ 星図

・ 光度変化

        m1 = 4.0 + 5 logΔ + 11.0 log r  [ ,0]  (              〜2018年 2月19日)
        m1 = 2.8 + 5 logΔ + 13.0 log r  [0, ]  (2018年 2月19日〜              )

---------------------------------------------------------------------

軌道要素はM.P.E.C. 2021-F20に掲載されたものです。
星図はステラナビゲータ Ver.8 (アストロアーツ) で作成したものです。
光度グラフはComet for Windowsで作成したものです。

---------------------------------------------------------------------

Copyright(C) Seiichi Yoshida (comet@aerith.net). All rights reserved.